User: anonymous   Login
Location: Unspecified
(0.0000°N, 0.0000°E)
Time: 16:28:30
(UTC+00:00)
Language:

ISS - Orbit

View from above orbital plane
View from above orbital plane
View from above satellite
View from above satellite

Ground track
Ground track

The orbit data is extracted from the following two-line orbital elements,

1 25544U 98067A   14304.17112391  .00021539  00000-0  37343-3 0  3297
2 25544 051.6445 145.5005 0003676 344.4883 118.6723 15.50814315912422
Epoch (UTC): 31 October 2014 04:06:25
Eccentricity: 0.0003676
inclination: 51.6445°
perigee height: 412 km
apogee height: 417 km
right ascension of ascending node: 145.5005°
argument of perigee: 344.4883°
revolutions per day: 15.50814315
mean anomaly at epoch: 118.6723°
orbit number at epoch: 91242

The dashed part of the orbit path shows where the satellite is in the earth's shadow,  

DLR